,,,,,,,���z��,���z��,����,����,,
DATE_TIME,�G���A���v�kMWh�l,���q�́kMWh�l,�ΉkMWh�l,���́kMWh�l,�n�M�kMWh�l,�o�C�I�}�X�kMWh�l,���сkMWh�l,�}���ʁkMWh�l,���сkMWh�l,�}���ʁkMWh�l,�g�����kMWh�l,�A�n���kMWh�l
2020/10/1 0:00,7286,1148,6648,649,153,482,0,0,45,0,-117,-1722
2020/10/1 1:00,7082,1146,6685,646,153,479,0,0,46,0,-413,-1660
2020/10/1 2:00,7241,1145,6735,637,154,482,0,0,43,0,-321,-1634
2020/10/1 3:00,7759,1145,6921,668,153,481,0,0,47,0,0,-1656
2020/10/1 4:00,8224,1143,7270,940,154,483,0,0,46,0,0,-1812
2020/10/1 5:00,8300,1144,7262,978,154,481,0,0,36,0,55,-1810
2020/10/1 6:00,8105,1145,7133,837,154,482,151,0,36,0,169,-2002
2020/10/1 7:00,8155,1148,6251,553,154,481,1562,0,34,0,-10,-2018
2020/10/1 8:00,8400,1147,5419,500,154,478,3381,0,34,0,-389,-2324
2020/10/1 9:00,9143,1147,4837,471,152,473,5086,1,31,0,-544,-2510
2020/10/1 10:00,9827,1147,4482,483,152,474,6452,1,24,0,-801,-2586
2020/10/1 11:00,10307,1147,4646,451,151,472,7126,1,25,0,-1147,-2564
2020/10/1 12:00,10134,1147,4374,459,151,472,7182,1,30,0,-1223,-2458
2020/10/1 13:00,10386,1147,4988,452,151,470,6665,1,27,0,-944,-2570
2020/10/1 14:00,10283,1147,5546,479,152,470,5535,1,29,0,-515,-2560
2020/10/1 15:00,10233,1147,6298,488,152,472,3998,1,34,0,206,-2562
2020/10/1 16:00,10387,1147,7406,639,152,475,2066,0,28,0,912,-2438
2020/10/1 17:00,10157,1147,7735,827,152,474,420,0,27,0,673,-1298
2020/10/1 18:00,10166,1147,7761,984,152,480,0,0,29,0,447,-834
2020/10/1 19:00,9688,1147,7734,982,152,481,0,0,24,0,330,-1162
2020/10/1 20:00,9173,1147,7735,870,153,480,0,0,28,0,308,-1548
2020/10/1 21:00,8640,1148,7616,749,153,479,0,0,26,0,47,-1578
2020/10/1 22:00,8268,1148,7464,721,153,479,0,0,19,0,0,-1716
2020/10/1 23:00,7988,1148,6958,596,153,482,0,0,14,0,7,-1370
2020/10/2 0:00,7416,1147,6799,551,153,482,0,0,21,0,69,-1806
2020/10/2 1:00,7169,1148,6712,554,153,481,0,0,22,0,-67,-1834
2020/10/2 2:00,7354,1148,6768,563,153,483,0,0,23,0,0,-1784
2020/10/2 3:00,7867,1148,7055,657,153,483,0,0,22,0,-25,-1626
2020/10/2 4:00,8321,1145,7262,873,152,484,0,0,12,0,153,-1760
2020/10/2 5:00,8414,1145,7360,802,153,483,0,0,7,0,258,-1794
2020/10/2 6:00,8192,1146,7098,764,153,482,149,0,6,0,244,-1850
2020/10/2 7:00,8222,1146,6295,471,153,475,1547,0,8,0,43,-1916
2020/10/2 8:00,8447,1147,5486,448,152,470,3438,0,5,0,-553,-2146
2020/10/2 9:00,9301,1147,4891,432,145,467,5245,0,6,0,-740,-2292
2020/10/2 10:00,9916,1146,4715,399,142,466,6425,0,1,0,-1284,-2094
2020/10/2 11:00,10545,1147,4749,381,141,463,7104,0,1,0,-1343,-2098
2020/10/2 12:00,10242,1147,4627,373,142,469,6876,0,1,0,-1259,-2134
2020/10/2 13:00,10739,1147,5184,376,142,472,6799,0,3,0,-842,-2542
2020/10/2 14:00,10778,1147,5742,370,142,470,5739,0,6,0,-232,-2606
2020/10/2 15:00,10573,1146,6957,412,142,476,3927,0,7,0,132,-2626
2020/10/2 16:00,10602,1145,7649,701,141,479,1982,0,3,0,974,-2472
2020/10/2 17:00,10351,1147,7684,887,141,480,375,0,4,0,947,-1314
2020/10/2 18:00,10231,1145,7612,980,142,485,0,0,6,0,661,-800
2020/10/2 19:00,9820,1146,7698,913,141,484,0,0,5,0,563,-1130
2020/10/2 20:00,9260,1145,7689,749,146,485,0,0,3,0,529,-1486
2020/10/2 21:00,8725,1147,7651,718,144,422,0,0,2,0,57,-1416
2020/10/2 22:00,8270,1146,7619,688,135,365,0,0,6,0,129,-1818
2020/10/2 23:00,7965,1146,7088,595,144,425,0,0,7,0,194,-1634
2020/10/3 0:00,7427,1147,6772,518,152,488,0,0,5,0,19,-1674
2020/10/3 1:00,7143,1145,6470,501,153,486,0,0,4,0,0,-1616
2020/10/3 2:00,7346,1146,6685,493,153,487,0,0,4,0,18,-1640
2020/10/3 3:00,7793,1147,7143,587,153,487,0,0,3,0,23,-1750
2020/10/3 4:00,8194,1144,7337,838,152,486,0,0,3,0,0,-1766
2020/10/3 5:00,8136,1145,7300,791,153,482,0,0,3,0,0,-1738
2020/10/3 6:00,7727,1145,6961,566,152,485,151,0,3,0,0,-1736
2020/10/3 7:00,7626,1147,5848,465,153,485,1280,0,4,0,0,-1756
2020/10/3 8:00,7829,1147,4765,421,153,486,2693,0,2,0,0,-1838
2020/10/3 9:00,8410,1147,4333,427,152,482,4289,0,1,0,-495,-1926
2020/10/3 10:00,8887,1146,4157,390,153,483,5475,0,2,0,-955,-1964
2020/10/3 11:00,9372,1146,3940,376,153,484,6005,0,3,0,-823,-1912
2020/10/3 12:00,9412,1146,3884,371,153,482,6140,0,9,0,-819,-1954
2020/10/3 13:00,9511,1147,4342,362,153,484,5822,0,5,0,-860,-1944
2020/10/3 14:00,9305,1147,4988,370,152,483,4721,0,5,0,-601,-1960
2020/10/3 15:00,9293,1146,6045,378,152,483,3367,0,10,0,-340,-1948
2020/10/3 16:00,9354,1146,7090,637,152,483,1732,0,12,0,92,-1990
2020/10/3 17:00,9392,1145,7499,880,152,485,264,0,10,0,894,-1937
2020/10/3 18:00,9638,1146,7616,971,151,485,0,0,5,0,652,-1388
2020/10/3 19:00,9221,1146,7569,913,151,486,0,0,11,0,559,-1614
2020/10/3 20:00,8791,1146,7592,717,152,479,0,0,11,0,471,-1777
2020/10/3 21:00,8319,1146,7482,676,152,475,0,0,5,0,158,-1775
2020/10/3 22:00,7936,1146,7137,592,152,464,0,0,2,0,88,-1645
2020/10/3 23:00,7555,1145,6866,503,152,468,0,0,2,0,85,-1666
2020/10/4 0:00,7097,1146,6645,486,152,469,0,0,5,0,-166,-1640
2020/10/4 1:00,6871,1147,6773,490,152,467,0,0,4,0,-530,-1632
2020/10/4 2:00,7017,1145,6749,484,153,466,0,0,1,0,-333,-1648
2020/10/4 3:00,7474,1146,6905,501,153,465,0,0,2,0,-30,-1668
2020/10/4 4:00,7846,1145,6859,715,152,448,0,0,4,0,205,-1682
2020/10/4 5:00,7814,1144,6696,810,153,442,0,0,0,0,293,-1724
2020/10/4 6:00,7327,1146,6591,630,152,442,79,0,1,0,8,-1722
2020/10/4 7:00,7171,1147,6014,514,152,445,878,0,1,0,-216,-1764
2020/10/4 8:00,7241,1146,5230,432,152,445,1959,0,1,0,-290,-1834
2020/10/4 9:00,7661,1147,4526,413,152,443,3482,0,1,0,-589,-1914
2020/10/4 10:00,8168,1148,3843,397,149,443,4803,1,0,0,-683,-1932
2020/10/4 11:00,8550,1147,3668,400,151,443,5544,1,0,0,-837,-1966
2020/10/4 12:00,8758,1147,3748,399,152,443,5794,1,1,0,-1008,-1918
2020/10/4 13:00,8684,1145,4698,391,152,442,4818,1,2,0,-1026,-1938
2020/10/4 14:00,8610,1145,5475,391,152,441,2940,0,1,0,-15,-1920
2020/10/4 15:00,8598,1146,5997,405,151,444,1383,0,1,0,843,-1772
2020/10/4 16:00,8762,1144,6715,477,152,443,608,0,1,0,788,-1566
2020/10/4 17:00,9058,1144,7449,765,152,446,97,0,0,0,603,-1598
2020/10/4 18:00,9445,1144,7644,934,152,443,0,0,0,0,764,-1636
2020/10/4 19:00,9171,1145,7664,918,152,446,0,0,2,0,488,-1644
2020/10/4 20:00,8729,1144,7593,664,152,448,0,0,4,0,370,-1646
2020/10/4 21:00,8261,1144,7425,711,152,445,0,0,3,0,263,-1882
2020/10/4 22:00,7804,1144,7165,549,152,445,0,0,2,0,153,-1806
2020/10/4 23:00,7474,1143,6861,488,152,445,0,0,2,0,-15,-1602
2020/10/5 0:00,7005,1147,6872,457,152,446,0,0,6,0,-621,-1454
2020/10/5 1:00,6754,1146,6877,454,152,445,0,0,14,0,-842,-1492
2020/10/5 2:00,6965,1145,6893,479,152,444,0,0,29,0,-609,-1568
2020/10/5 3:00,7508,1146,6857,497,152,445,0,0,46,0,-89,-1546
2020/10/5 4:00,7968,1144,6892,725,152,446,0,0,62,0,173,-1626
2020/10/5 5:00,8147,1145,6906,822,153,444,0,0,56,0,233,-1612
2020/10/5 6:00,8078,1144,6923,588,153,443,42,0,70,0,337,-1622
2020/10/5 7:00,8336,1145,6894,447,152,442,573,0,67,0,406,-1790
2020/10/5 8:00,8838,1147,6912,393,152,438,1833,0,83,0,232,-2352
2020/10/5 9:00,9331,1147,6276,389,152,434,3508,0,97,0,-154,-2518
2020/10/5 10:00,9599,1146,5739,375,153,434,5260,0,81,0,-1019,-2570
2020/10/5 11:00,9892,1147,5166,377,153,433,6433,0,81,0,-1362,-2536
2020/10/5 12:00,9625,1146,4374,375,153,438,6963,0,75,0,-1457,-2442
2020/10/5 13:00,9859,1146,4942,374,153,434,6768,0,66,0,-1472,-2552
2020/10/5 14:00,9876,1146,5448,378,151,433,5720,0,62,0,-868,-2594
2020/10/5 15:00,9733,1147,6578,499,151,433,4059,0,70,0,-582,-2622
2020/10/5 16:00,9831,1145,7650,601,152,434,2053,0,72,0,138,-2414
2020/10/5 17:00,9699,1147,7681,755,152,437,359,0,79,0,563,-1474
2020/10/5 18:00,9765,1145,7711,890,152,442,0,0,90,0,385,-1050
2020/10/5 19:00,9270,1147,7664,882,152,438,0,0,98,0,113,-1224
2020/10/5 20:00,8810,1147,7621,648,152,440,0,0,109,0,103,-1410
2020/10/5 21:00,8294,1147,7526,494,152,440,0,0,101,0,0,-1566
2020/10/5 22:00,8015,1146,7521,444,152,438,0,0,86,0,0,-1772
2020/10/5 23:00,7707,1147,6919,459,152,440,0,0,86,0,98,-1594
2020/10/6 0:00,7182,1146,6507,445,152,441,0,0,87,0,224,-1820
2020/10/6 1:00,7008,1146,6493,441,152,441,0,0,109,0,24,-1798
2020/10/6 2:00,7239,1145,6670,454,152,441,0,0,105,0,112,-1840
2020/10/6 3:00,7839,1145,7121,543,152,441,0,0,89,0,202,-1854
2020/10/6 4:00,8346,1142,7144,736,152,442,0,0,92,0,98,-1460
2020/10/6 5:00,8463,1142,7156,805,152,442,0,0,90,0,222,-1546
2020/10/6 6:00,8240,1142,7080,598,152,444,117,0,79,0,348,-1720
2020/10/6 7:00,8134,1144,6328,445,149,441,1479,0,82,0,284,-2218
2020/10/6 8:00,8195,1146,4802,377,148,438,3535,0,76,0,-17,-2310
2020/10/6 9:00,8806,1146,4398,320,148,433,5328,1,62,0,-535,-2494
2020/10/6 10:00,9249,1146,4205,297,148,432,6671,1,46,0,-1198,-2498
2020/10/6 11:00,9680,1145,3692,301,148,433,7392,2,55,0,-930,-2556
2020/10/6 12:00,9520,1146,3636,283,148,437,7501,2,56,0,-1215,-2472
2020/10/6 13:00,9650,1146,3857,289,146,434,6871,1,54,0,-639,-2508
2020/10/6 14:00,9530,1146,4965,294,143,433,5679,1,64,0,-604,-2590
2020/10/6 15:00,9520,1145,5896,360,143,433,4051,1,68,0,2,-2578
2020/10/6 16:00,9698,1146,7273,460,143,431,2023,0,80,0,742,-2600
2020/10/6 17:00,9663,1147,7616,707,143,436,326,0,74,0,734,-1520
2020/10/6 18:00,9781,1146,7678,837,148,438,0,0,82,0,434,-982
2020/10/6 19:00,9331,1145,7646,805,148,437,0,0,98,0,278,-1226
2020/10/6 20:00,8836,1143,7741,638,148,437,0,0,105,0,206,-1582
2020/10/6 21:00,8349,1144,7553,612,148,438,0,0,117,0,37,-1700
2020/10/6 22:00,8033,1145,7456,507,148,435,0,0,111,0,43,-1812
2020/10/6 23:00,7720,1143,7251,470,148,440,0,0,110,0,116,-1958
2020/10/7 0:00,7262,1145,6807,433,148,442,0,0,109,0,0,-1822
2020/10/7 1:00,7035,1146,6583,447,148,438,0,0,113,0,0,-1840
2020/10/7 2:00,7305,1146,6805,497,148,441,0,0,137,0,1,-1870
2020/10/7 3:00,7900,1148,7047,577,148,440,0,0,159,0,135,-1754
2020/10/7 4:00,8385,1144,7206,690,148,442,0,0,161,0,282,-1688
2020/10/7 5:00,8448,1146,7212,710,148,442,0,0,162,0,406,-1778
2020/10/7 6:00,8210,1145,7026,781,148,443,131,0,147,0,363,-1974
2020/10/7 7:00,8063,1149,6375,466,148,443,1431,0,143,0,-28,-2064
2020/10/7 8:00,8250,1146,5756,397,148,436,3189,0,133,0,-609,-2346
2020/10/7 9:00,8620,1147,4826,376,148,432,5036,0,115,0,-950,-2510
2020/10/7 10:00,9142,1147,3987,367,144,433,6492,0,110,0,-972,-2566
2020/10/7 11:00,9494,1147,3787,384,142,432,7028,0,106,0,-968,-2564
2020/10/7 12:00,9278,1147,4096,373,142,435,6948,0,103,0,-1504,-2462
2020/10/7 13:00,9507,1146,4874,380,141,432,6135,0,138,0,-1201,-2538
2020/10/7 14:00,9652,1147,5857,387,141,431,4928,0,151,0,-806,-2584
2020/10/7 15:00,9532,1146,6915,436,141,432,3164,0,157,0,-279,-2580
2020/10/7 16:00,9761,1145,7566,540,145,430,1545,0,186,0,586,-2382
2020/10/7 17:00,9714,1147,7682,619,147,432,242,0,212,0,731,-1498
2020/10/7 18:00,9827,1145,7703,841,147,435,0,0,209,0,401,-1054
2020/10/7 19:00,9474,1146,7694,807,147,433,0,0,226,0,327,-1306
2020/10/7 20:00,8963,1146,7700,763,147,433,0,0,225,0,295,-1746
2020/10/7 21:00,8523,1147,7552,588,147,433,0,0,220,0,130,-1694
2020/10/7 22:00,8116,1146,7460,663,150,430,0,0,211,0,-378,-1566
2020/10/7 23:00,7768,1147,7276,660,151,432,0,0,221,0,-605,-1514
2020/10/8 0:00,7329,1147,7181,587,151,433,0,0,238,0,-762,-1646
2020/10/8 1:00,7086,1147,6995,556,151,433,0,0,228,0,-1012,-1412
2020/10/8 2:00,7300,1148,7104,582,151,434,0,0,241,0,-470,-1890
2020/10/8 3:00,7831,1147,7175,682,151,435,0,0,254,0,-179,-1834
2020/10/8 4:00,8296,1146,7189,879,151,435,0,0,226,0,0,-1730
2020/10/8 5:00,8337,1146,7223,918,151,435,0,0,227,0,15,-1778
2020/10/8 6:00,8238,1146,7213,818,151,436,20,0,238,0,0,-1784
2020/10/8 7:00,8415,1148,7254,597,151,437,320,0,241,0,7,-1740
2020/10/8 8:00,8937,1148,7426,501,151,434,887,0,222,0,66,-1898
2020/10/8 9:00,9454,1148,7256,492,134,432,1701,0,229,0,-20,-1918
2020/10/8 10:00,9470,1147,7169,492,130,429,2618,0,241,0,-546,-2210
2020/10/8 11:00,9701,1148,6783,487,130,431,3492,0,253,0,-521,-2502
2020/10/8 12:00,9161,1147,6507,472,130,433,3209,0,217,0,-538,-2416
2020/10/8 13:00,9623,1147,6861,460,130,432,2939,0,218,0,0,-2564
2020/10/8 14:00,9611,1146,6931,480,131,427,2734,0,236,0,0,-2474
2020/10/8 15:00,9481,1147,7199,487,139,426,1940,0,214,0,59,-2130
2020/10/8 16:00,9589,1147,7590,556,151,426,1110,0,192,0,271,-1854
2020/10/8 17:00,9615,1147,7680,746,151,428,273,0,192,0,342,-1344
2020/10/8 18:00,9807,1146,7745,792,152,430,1,0,195,0,468,-1122
2020/10/8 19:00,9394,1147,7732,696,152,427,0,0,176,0,394,-1330
2020/10/8 20:00,8928,1149,7686,527,151,429,0,0,160,0,204,-1378
2020/10/8 21:00,8439,1147,7575,540,152,431,0,0,168,0,126,-1700
2020/10/8 22:00,8052,1147,7480,508,151,431,0,0,165,0,140,-1970
2020/10/8 23:00,7757,1147,7258,501,151,439,0,0,167,0,88,-1994
2020/10/9 0:00,7271,1148,6754,482,151,467,0,0,165,0,0,-1896
2020/10/9 1:00,7023,1147,6324,427,151,475,0,0,163,0,0,-1664
2020/10/9 2:00,7362,1147,6712,425,151,476,0,0,149,0,60,-1758
2020/10/9 3:00,7868,1147,7039,483,151,472,0,0,185,0,153,-1762
2020/10/9 4:00,8331,1146,7233,692,152,473,0,0,193,0,170,-1728
2020/10/9 5:00,8321,1146,7213,714,152,476,0,0,179,0,131,-1690
2020/10/9 6:00,8195,1146,7075,486,152,476,57,0,178,0,275,-1650
2020/10/9 7:00,8282,1148,6979,443,152,467,710,0,183,0,224,-2024
2020/10/9 8:00,8650,1147,6673,408,151,454,1971,0,169,0,31,-2354
2020/10/9 9:00,9278,1148,5789,376,151,452,3514,0,150,0,0,-2302
2020/10/9 10:00,9680,1148,5481,372,152,451,4523,0,143,0,0,-2590
2020/10/9 11:00,9848,1147,5211,358,151,450,4944,0,141,0,0,-2554
2020/10/9 12:00,9648,1148,5017,323,150,452,4999,0,155,0,-154,-2442
2020/10/9 13:00,10138,1147,5934,330,150,449,4185,0,163,0,262,-2482
2020/10/9 14:00,10005,1148,6741,358,152,451,2554,0,165,0,1010,-2574
2020/10/9 15:00,9935,1146,7462,423,150,453,1566,0,176,0,803,-2244
2020/10/9 16:00,10017,1147,7688,529,149,454,660,0,171,0,849,-1630
2020/10/9 17:00,9870,1147,7728,645,148,457,94,0,161,0,582,-1092
2020/10/9 18:00,9949,1147,7736,741,150,457,0,0,164,0,504,-950
2020/10/9 19:00,9516,1147,7760,688,152,461,0,0,159,0,229,-1080
2020/10/9 20:00,9039,1148,7665,608,152,463,0,0,172,0,73,-1242
2020/10/9 21:00,8562,1147,7611,477,153,462,0,0,166,0,0,-1454
2020/10/9 22:00,8258,1147,7624,392,152,463,0,0,136,0,120,-1776
2020/10/9 23:00,7946,1147,7271,347,152,463,0,0,110,0,158,-1702
2020/10/10 0:00,7476,1147,6931,375,151,465,0,0,108,0,-157,-1544
2020/10/10 1:00,7180,1144,6930,374,152,463,0,0,91,0,-424,-1550
2020/10/10 2:00,7371,1145,6894,343,151,462,0,0,81,0,-141,-1564
2020/10/10 3:00,7875,1144,7217,378,151,463,0,0,86,0,122,-1686
2020/10/10 4:00,8269,1143,7394,605,151,464,0,0,90,0,90,-1668
2020/10/10 5:00,8161,1143,7323,717,151,463,0,0,106,0,0,-1742
2020/10/10 6:00,7814,1145,6910,473,151,464,51,0,115,0,39,-1534
2020/10/10 7:00,7734,1147,6417,327,151,464,726,0,120,0,50,-1668
2020/10/10 8:00,7939,1148,5578,312,151,465,2021,0,108,0,-22,-1822
2020/10/10 9:00,8421,1147,4729,296,151,462,3611,1,121,0,-486,-1610
2020/10/10 10:00,8634,1147,4284,284,151,459,4574,1,109,0,-618,-1756
2020/10/10 11:00,8964,1146,4425,268,151,461,5270,1,95,0,-924,-1928
2020/10/10 12:00,8970,1147,4494,280,150,459,5222,1,91,0,-909,-1964
2020/10/10 13:00,9042,1148,4935,324,151,460,4745,1,93,0,-876,-1938
2020/10/10 14:00,8973,1147,5360,332,151,461,3740,1,102,0,-398,-1922
2020/10/10 15:00,9002,1146,5943,313,151,462,2524,0,105,0,294,-1936
2020/10/10 16:00,9069,1147,7020,464,151,462,1192,0,115,0,372,-1854
2020/10/10 17:00,9210,1146,7517,673,151,463,162,0,123,0,617,-1642
2020/10/10 18:00,9394,1146,7567,761,151,462,0,0,127,0,454,-1274
2020/10/10 19:00,9048,1144,7576,732,151,464,0,0,130,0,363,-1512
2020/10/10 20:00,8631,1144,7428,616,151,464,0,0,120,0,142,-1434
2020/10/10 21:00,8153,1144,7069,506,151,463,0,0,105,0,123,-1408
2020/10/10 22:00,7750,1145,6945,498,151,463,0,0,99,0,7,-1558
2020/10/10 23:00,7428,1145,6773,478,151,464,0,0,81,0,0,-1664
2020/10/11 0:00,6995,1146,6347,429,151,466,0,0,58,0,0,-1602
2020/10/11 1:00,6788,1147,6169,435,151,466,0,0,48,0,0,-1628
2020/10/11 2:00,7039,1145,6517,433,151,465,0,0,54,0,0,-1726
2020/10/11 3:00,7519,1147,6835,487,152,467,0,0,47,0,140,-1756
2020/10/11 4:00,7920,1144,6976,680,152,465,0,0,54,0,209,-1760
2020/10/11 5:00,7853,1145,6878,657,152,464,0,0,50,0,213,-1706
2020/10/11 6:00,7308,1145,6668,443,152,465,77,0,47,0,7,-1696
2020/10/11 7:00,7108,1147,5439,359,152,465,979,0,47,0,-154,-1326
2020/10/11 8:00,7045,1147,4273,362,152,464,2246,0,45,0,-294,-1350
2020/10/11 9:00,7617,1146,3512,365,152,463,3754,0,40,0,-671,-1144
2020/10/11 10:00,7962,1146,3536,283,152,463,4797,0,35,0,-1216,-1234
2020/10/11 11:00,8228,1146,3525,254,151,463,5347,0,33,0,-1287,-1404
2020/10/11 12:00,8263,1146,3966,260,151,465,5063,0,30,0,-1224,-1594
2020/10/11 13:00,8157,1146,4465,303,151,463,4022,0,38,0,-1259,-1172
2020/10/11 14:00,8083,1146,5134,316,151,463,3034,0,42,0,-343,-1860
2020/10/11 15:00,8128,1146,5903,288,151,462,2024,0,42,0,62,-1950
2020/10/11 16:00,8265,1146,6764,408,151,462,1036,0,45,0,143,-1890
2020/10/11 17:00,8668,1147,7537,682,151,462,138,0,48,0,453,-1950
2020/10/11 18:00,9098,1147,7658,779,151,464,0,0,37,0,448,-1586
2020/10/11 19:00,8771,1147,7665,750,151,463,0,0,33,0,370,-1808
2020/10/11 20:00,8391,1147,7643,611,152,463,0,0,33,0,270,-1928
2020/10/11 21:00,8026,1147,7285,480,152,463,0,0,21,0,342,-1864
2020/10/11 22:00,7635,1147,7078,454,152,463,0,0,17,0,92,-1768
2020/10/11 23:00,7289,1146,6806,430,152,464,0,0,15,0,-20,-1704
2020/10/12 0:00,6857,1147,6852,395,152,464,0,0,15,0,-576,-1592
2020/10/12 1:00,6683,1147,6863,412,151,464,0,0,15,0,-811,-1558
2020/10/12 2:00,6953,1146,6891,432,151,464,0,0,11,0,-506,-1636
2020/10/12 3:00,7521,1147,6882,474,151,462,0,0,11,0,116,-1722
2020/10/12 4:00,7999,1145,7012,570,151,463,0,0,12,0,338,-1692
2020/10/12 5:00,8097,1145,7080,616,151,462,0,0,21,0,264,-1642
2020/10/12 6:00,8052,1145,7088,452,152,462,43,0,24,0,370,-1684
2020/10/12 7:00,8244,1146,6680,381,152,462,775,0,20,0,130,-1502
2020/10/12 8:00,8578,1145,6256,366,151,457,2150,0,20,0,19,-1986
2020/10/12 9:00,9261,1145,6195,364,151,454,3646,0,20,0,-442,-2272
2020/10/12 10:00,9335,1146,6282,268,151,451,4237,0,16,0,-632,-2584
2020/10/12 11:00,9957,1146,6291,234,152,453,5043,0,14,0,-824,-2552
2020/10/12 12:00,9898,1144,6259,228,152,456,5607,0,19,0,-1485,-2482
2020/10/12 13:00,10065,1145,6265,285,151,453,5426,0,19,0,-1129,-2550
2020/10/12 14:00,10013,1144,6376,284,153,453,4721,0,20,0,-512,-2626
2020/10/12 15:00,9897,1145,7161,295,153,453,3243,0,28,0,13,-2594
2020/10/12 16:00,9969,1145,7632,407,153,452,1455,0,38,0,975,-2288
2020/10/12 17:00,9911,1145,7640,591,152,456,190,0,31,0,882,-1176
2020/10/12 18:00,9963,1144,7674,758,153,457,0,0,28,0,589,-840
2020/10/12 19:00,9481,1144,7674,646,154,459,0,0,29,0,503,-1128
2020/10/12 20:00,8991,1146,7686,565,154,458,0,0,26,0,514,-1558
2020/10/12 21:00,8504,1145,7614,442,154,457,0,0,26,0,192,-1526
2020/10/12 22:00,8163,1145,7558,348,154,457,0,0,24,0,205,-1728
2020/10/12 23:00,7814,1144,7353,358,153,461,0,0,15,0,292,-1962
2020/10/13 0:00,7328,1145,6978,360,154,460,0,0,16,0,67,-1852
2020/10/13 1:00,7123,1146,6773,347,154,457,0,0,13,0,-231,-1536
2020/10/13 2:00,7326,1145,6819,355,154,459,0,0,9,0,-21,-1594
2020/10/13 3:00,7885,1144,7137,368,154,459,0,0,22,0,93,-1492
2020/10/13 4:00,8334,1143,7255,503,154,460,0,0,34,0,7,-1222
2020/10/13 5:00,8419,1145,7240,594,154,461,0,0,43,0,0,-1218
2020/10/13 6:00,8233,1143,7227,467,154,464,90,0,58,0,118,-1488
2020/10/13 7:00,8132,1146,6562,309,154,462,1260,0,60,0,201,-2022
2020/10/13 8:00,8333,1145,5756,288,154,458,3074,0,48,0,-238,-2352
2020/10/13 9:00,8933,1145,5292,266,154,452,4845,1,33,0,-728,-2526
2020/10/13 10:00,9355,1145,5043,266,154,450,6077,1,26,0,-1236,-2570
2020/10/13 11:00,9686,1146,4892,284,154,450,6825,1,20,0,-1541,-2544
2020/10/13 12:00,9443,1145,4471,281,153,453,6947,1,29,0,-1594,-2442
2020/10/13 13:00,9723,1145,5073,294,154,450,6380,1,27,0,-1284,-2516
2020/10/13 14:00,9805,1145,5845,317,154,448,5235,1,29,0,-808,-2560
2020/10/13 15:00,9763,1145,6662,340,153,450,3546,0,26,0,-49,-2510
2020/10/13 16:00,9946,1144,7439,560,138,450,1616,0,21,0,816,-2238
2020/10/13 17:00,9960,1145,7541,662,138,455,187,0,28,0,902,-1098
2020/10/13 18:00,10005,1145,7553,756,138,457,0,0,47,0,641,-732
2020/10/13 19:00,9512,1146,7540,690,138,457,0,0,41,0,528,-1028
2020/10/13 20:00,8993,1145,7570,660,138,459,0,0,38,0,401,-1418
2020/10/13 21:00,8506,1146,7417,403,138,460,0,0,41,0,125,-1224
2020/10/13 22:00,8133,1146,7416,359,138,461,0,0,41,0,106,-1534
2020/10/13 23:00,7793,1146,7206,376,138,461,0,0,43,0,217,-1794
2020/10/14 0:00,7369,1146,6893,389,138,462,0,0,49,0,10,-1718
2020/10/14 1:00,7141,1147,6854,360,138,459,0,0,54,0,-259,-1612
2020/10/14 2:00,7365,1147,6935,362,138,460,0,0,49,0,-40,-1686
2020/10/14 3:00,7951,1147,7054,378,138,459,0,0,51,0,0,-1276
2020/10/14 4:00,8370,1147,7165,532,138,461,0,0,57,0,108,-1238
2020/10/14 5:00,8452,1146,7181,591,138,463,0,0,76,0,125,-1268
2020/10/14 6:00,8207,1146,7037,496,138,463,79,0,87,0,11,-1250
2020/10/14 7:00,8108,1148,6589,329,138,463,1162,0,105,0,142,-1968
2020/10/14 8:00,8279,1147,5846,283,138,460,2925,0,93,0,-289,-2324
2020/10/14 9:00,8842,1148,5237,238,140,454,4722,0,69,0,-678,-2488
2020/10/14 10:00,9175,1148,4800,237,151,445,5843,0,62,0,-921,-2590
2020/10/14 11:00,9419,1147,4563,263,151,441,6305,0,66,0,-927,-2590
2020/10/14 12:00,9212,1147,4360,265,152,441,6478,0,61,0,-1242,-2450
2020/10/14 13:00,9538,1148,4837,280,153,440,5957,0,68,0,-799,-2546
2020/10/14 14:00,9565,1148,5272,293,154,436,4907,0,63,0,-106,-2602
2020/10/14 15:00,9434,1148,6593,298,153,441,3282,0,61,0,20,-2562
2020/10/14 16:00,9751,1146,7460,500,153,449,1546,0,64,0,687,-2254
2020/10/14 17:00,9676,1148,7508,726,154,452,171,0,64,0,631,-1178
2020/10/14 18:00,9776,1147,7602,770,154,454,0,0,61,0,426,-838
2020/10/14 19:00,9344,1147,7587,686,154,455,0,0,71,0,258,-1014
2020/10/14 20:00,8890,1147,7608,570,154,457,0,0,81,0,157,-1284
2020/10/14 21:00,8393,1146,7387,404,154,457,0,0,90,0,53,-1298
2020/10/14 22:00,7964,1147,7222,370,154,456,0,0,87,0,0,-1472
2020/10/14 23:00,7619,1146,7118,386,154,460,0,0,78,0,51,-1774
2020/10/15 0:00,7235,1146,6497,383,154,461,0,0,75,0,-99,-1382
2020/10/15 1:00,6966,1146,6534,368,154,459,0,0,78,0,-129,-1644
2020/10/15 2:00,7256,1146,6787,374,154,459,0,0,68,0,0,-1732
2020/10/15 3:00,7841,1146,6948,380,154,458,0,0,69,0,0,-1314
2020/10/15 4:00,8253,1144,7234,407,154,460,0,0,75,0,125,-1346
2020/10/15 5:00,8360,1144,7190,487,154,460,0,0,81,0,180,-1336
2020/10/15 6:00,8176,1145,7186,495,154,463,70,0,73,0,116,-1526
2020/10/15 7:00,8054,1146,6739,316,154,462,1181,0,56,0,52,-2052
2020/10/15 8:00,8156,1146,5684,254,154,459,3030,0,55,0,-284,-2342
2020/10/15 9:00,8676,1145,4891,235,154,455,4771,0,47,0,-500,-2522
2020/10/15 10:00,8977,1146,4449,235,153,452,6005,0,40,0,-911,-2592
2020/10/15 11:00,9304,1146,4102,254,153,451,6687,0,35,0,-960,-2564
2020/10/15 12:00,8961,1146,3832,257,153,449,6664,0,46,0,-1312,-2274
2020/10/15 13:00,9270,1146,4413,249,153,445,6199,0,41,0,-830,-2546
2020/10/15 14:00,9369,1145,4930,251,151,449,5099,0,49,0,-91,-2614
2020/10/15 15:00,9320,1146,5975,282,152,452,3392,0,51,0,464,-2594
2020/10/15 16:00,9643,1146,7345,477,154,452,1422,0,57,0,928,-2338
2020/10/15 17:00,9633,1146,7616,692,154,455,129,0,52,0,581,-1192
2020/10/15 18:00,9711,1146,7677,747,154,458,0,0,48,0,189,-708
2020/10/15 19:00,9290,1146,7651,697,154,462,0,0,55,0,173,-1048
2020/10/15 20:00,8861,1146,7664,565,154,462,0,0,53,0,139,-1322
2020/10/15 21:00,8368,1146,7461,395,154,460,0,0,64,0,100,-1412
2020/10/15 22:00,8027,1146,7327,326,154,460,0,0,56,0,72,-1514
2020/10/15 23:00,7664,1146,7189,335,154,463,0,0,53,0,0,-1676
2020/10/16 0:00,7225,1146,6814,321,167,465,0,0,45,0,-295,-1438
2020/10/16 1:00,7030,1146,6980,339,167,463,0,0,39,0,-330,-1774
2020/10/16 2:00,7298,1147,7096,331,167,463,0,0,40,0,-306,-1640
2020/10/16 3:00,7882,1146,7128,397,167,464,0,0,45,0,-227,-1238
2020/10/16 4:00,8299,1145,7182,485,167,464,0,0,49,0,49,-1242
2020/10/16 5:00,8362,1144,7195,547,167,460,0,0,51,0,218,-1420
2020/10/16 6:00,8156,1145,7159,341,167,462,61,0,50,0,133,-1362
2020/10/16 7:00,8175,1147,7083,258,167,460,895,0,50,0,-21,-1864